Regional Weather Roundup
Issued by NWS

Home | Current Version | Previous Version | Text Only | Print | Product List | Glossary Off
Versions: 1 2 3 4 5 6 7 8 9 10 11 12 13 14 15 16 17 18 19 20 21 22 23 24 25 26 27 28 29 30 31 32 33 34 35 36 37 38 39 40 41 42 43 44 45 46 47 48 49 50

000
ASUS43 KMKX 222221
RWRWI

WISCONSIN REGIONAL WEATHER ROUNDUP
NATIONAL WEATHER SERVICE MILWAUKEE/SULLIVAN WI
400 PM CST SAT NOV 22 2014

NOTE: "FAIR" INDICATES FEW OR NO CLOUDS BELOW 12,000 FEET WITH NO
SIGNIFICANT WEATHER AND/OR OBSTRUCTIONS TO VISIBILITY.

WIZ001-002-006>008-014>016-023>028-222300-
NORTHWEST WISCONSIN

CITY           SKY/WX    TMP DP  RH WIND       PRES   REMARKS
SUPERIOR ARPT  CLOUDY    37  32  82 SW8       29.66R WCI  31
ASHLAND        CLOUDY    37  31  78 S7        29.69R WCI  32
HAYWARD        CLOUDY    35  31  85 S10       29.68S WCI  27
SIREN          CLOUDY    34  32  92 S7        29.68S FOG     WCI  28
CUMBERLAND     CLOUDY    32  32 100 S8        29.68S FOG     WCI  25
RICE LAKE      CLOUDY    34  32  91 S6        29.71S WCI  29
CHETEK         CLOUDY    34  33  95 S3        29.70S FOG
LADYSMITH      CLOUDY    35  34  94 S7        29.72S FOG     WCI  29
EAU CLAIRE     FOG       36  34  92 S5        29.71S VSB 1/2 WCI  32
MENOMONIE      CLOUDY    36  35  94 CALM      29.71S FOG
NEW RICHMOND   CLOUDY    34  34  99 S8        29.69S FOG     WCI  28
OSCEOLA        CLOUDY    35  35 100 S12       29.71R FOG     WCI  26
$$

WIZ003>005-009-010-017-018-222300-
NORTH CENTRAL WISCONSIN

CITY           SKY/WX    TMP DP  RH WIND       PRES   REMARKS
MANITOWISH WTR CLOUDY    32  32  99 SW7       29.68S WCI  26
ARBOR VITAE    CLOUDY    36  34  91 SW6       29.69S FOG     WCI  32
WOODRUFF       CLOUDY    36  34  91 SW6       29.69S FOG     WCI  32
RHINELANDER    CLOUDY    33  31  92 SW8       29.70S FOG     WCI  26
EAGLE RIVER    CLOUDY    33  32  96 SW10      29.69S FOG     WCI  25
LAND O LAKES   CLOUDY    34  31  91 SW6       29.69S FOG     WCI  29
PHILLIPS       CLOUDY    33  32  96 SW6       29.69S FOG     WCI  27
TOMAHAWK       CLOUDY    34  32  93 CALM      29.72R FOG
MEDFORD        FOG       33  33  99 S3        29.71S VSB<1/4
MERRILL        FOG       35  35 100 SW3       29.72S VSB 1/2
$$

WIZ029-030-035-036-043>047-222300-
CENTRAL WISCONSIN

CITY           SKY/WX    TMP DP  RH WIND       PRES   REMARKS
WAUSAU         FOG       34  34 100 SE5       29.71F VSB<1/4 WCI  30
MOSINEE        FOG       34  34 100 SE3       29.74S VSB 1/8
MARSHFIELD     FOG       36  35  96 S3        29.72S VSB<1/4
STEVENS POINT  CLOUDY    35  34  96 S3        29.74S FOG
WAUPACA        CLOUDY    40  37  88 CALM      29.76S FOG
WAUTOMA        CLOUDY    40  38  93 CALM      29.76F
WISC RAPIDS    CLOUDY    38  34  85 S6        29.75F WCI  33
CAMP DOUGLAS   CLOUDY    39  39 100 SW5       29.74F
$$

WIZ011>013-019>022-031-037>040-048>050-222300-
NORTHEAST WISCONSIN

CITY           SKY/WX    TMP DP  RH WIND       PRES   REMARKS
ANTIGO         FOG       33  33 100 SW7       29.72S VSB<1/4 WCI  27
SHAWANO        CLOUDY    38  35  87 SW3       29.76S FOG
OCONTO         CLOUDY    37  36  95 SW6       29.76S WCI  33
STURGEON BAY   CLOUDY    37  34  87 SW7       29.77R WCI  32
GREEN BAY      CLOUDY    38  36  92 S5        29.77R FOG     WCI  34
MANITOWOC      CLOUDY    43  40  89 SW10      29.78S
APPLETON       FOG       37  37 100 SW7       29.76S VSB 1   WCI  32
CLINTONVILLE   CLOUDY    36  34  93 CALM      29.76S FOG
OSHKOSH        CLOUDY    40  38  93 S9        29.77S FOG     WCI  34
$$

WIZ032>034-041-042-053>061-222300-
SOUTHWEST WISCONSIN

CITY           SKY/WX    TMP DP  RH WIND       PRES   REMARKS
LA CROSSE      CLOUDY    40  37  89 S6        29.74S
SPARTA         CLOUDY    39  37  95 S5        29.75R FOG
VIROQUA        CLOUDY    38  38 100 S8        29.73S VSB<1/4 WCI  32
BOSCOBEL       CLOUDY    43  40  89 N3        29.76F FOG
PRAIRIE DU CHI CLOUDY    44  41  89 E3        29.74F
PLATTEVILLE    CLOUDY    47  45  95 S10       29.77F
$$

WIZ056-057-062-063-064-067-068-222300-
SOUTH CENTRAL WISCONSIN

CITY           SKY/WX    TMP DP  RH WIND       PRES   REMARKS
REEDSBURG      CLOUDY    40  39  97 SW7       29.76R FOG
BARABOO/DELLS  CLOUDY    40  39  95 SW8       29.76S FOG     WCI  35
LONE ROCK      CLOUDY    45  39  79 CALM      29.77F HAZE
MINERAL POINT  CLOUDY    45  45 100 S6        29.76F FOG
MADISON        CLOUDY    44  41  89 S5        29.78F FOG
MIDDLETON      CLOUDY    46  44  95 SW5       29.79S
WATERTOWN      CLOUDY    44  44 100 SW9       29.79F FOG
MONROE         FOG       45  45 100 SW9       29.79F VSB 1/4
JANESVILLE     CLOUDY    48  46  93 SW9       29.81S FOG
$$

WIZ051-052-058>065-066-070>072-222300-
SOUTHEAST WISCONSIN

CITY           SKY/WX    TMP DP  RH WIND       PRES   REMARKS
MILWAUKEE      CLOUDY    46  43  89 SW13      29.82S FOG
WAUKESHA       CLOUDY    45  43  93 SW8       29.82R FOG
MILWAUKEE/TIMM CLOUDY    46  43  87 SW10      29.81S FOG
RACINE         CLOUDY    46  42  86 S9        29.84S FOG
BURLINGTON     CLOUDY    44  43  96 S10       29.82S FOG
KENOSHA        CLOUDY    47  44  90 SW9       29.84R FOG
FOND DU LAC    FOG       41  39  93 SW8       29.78S VSB 3/4
SHEBOYGAN      CLOUDY    41  39  93 SW8       29.79S FOG
WEST BEND      CLOUDY    43  41  93 SW13G20   29.79S FOG
JUNEAU         FOG       40  40  99 S8        29.79F VSB 1/2 WCI  34
$$

LSZ147-162-222300-
LAKE SUPERIOR

STATION/POSITION TIME  TEMP    WIND        PRES    WAVE
                       AIR SEA DIR/SP/G            HT/PER
                 (UTC) (F)     (DEG/KT/KT) (MB)    (FT/S)
DEVILS ISLAND    2200   38     210/  3/  4 1005.3R
PORT WING        2140   38     180/  7/ 11 1004.7S
SAXON HARBOR     2100   39     200/  7/ 10 1005.4R
$$

LMZ867-665-643>646-222300-
LAKE MICHIGAN

STATION/POSITION TIME  TEMP    WIND        PRES    WAVE
                       AIR SEA DIR/SP/G            HT/PER
                 (UTC) (F)     (DEG/KT/KT) (MB)    (FT/S)
CHAMBERS ISLAND  2100   37     190/  7/ 12 1007.8R
N MID LAKE BUOY  2150   40 42  230/ 17/ 19 1007.8S   6/ 6
NORTHPORT PIER   2100   37     180/  3/ 12 1007.8R
SISTER BAY       2113          210/ 13/ 16   N/A
KEWAUNEE LAKESHO 2200   40     210/  5/  7 1007.4F
SHEBOYGAN LAKESH 2200   41 36  180/ 14/ 15 1009.3F
PORT WASHINGTON  2100   41     200/  5/  6 1010.2
ATWATER BUOY     2200   45      30/  2/  4 1010.5F
MILWAUKEE LAKESH 2200   45     220/ 12/ 15   N/A
S MID LAKE BUOY  2150   44 42  190/ 17/ 19 1011.2F   4/ 5
KENOSHA   LAKESH 2200   47     200/  8/ 13 1010.5S
$$

TC  - TEMPERATURE IN CELSIUS
VSB - VISIBILITY IN STATUTE MILES
WCI - WIND CHILL INDEX
HX  - HEAT INDEX



USA.gov is the U.S. government's official web portal to all federal, state and local government web resources and services.